Terra - Orbit

View from above orbital plane
View from above orbital plane
View from above satellite
View from above satellite

Ground track
Ground track

The orbit data is extracted from the following two-line orbital elements,

1 25994U 99068A   13143.81430056  .00000430  00000-0  10558-3 0  1430
2 25994 098.2084 219.1025 0001318 102.6236 257.5086 14.57095319714363
Epoch (UTC): 23 May 2013 19:32:35
Eccentricity: 0.0001318
inclination: 98.2084°
perigee height: 701 km
apogee height: 703 km
right ascension of ascending node: 219.1025°
argument of perigee: 102.6236°
revolutions per day: 14.57095319
mean anomaly at epoch: 257.5086°
orbit number at epoch: 71436

The dashed part of the orbit path shows where the satellite is in the earth's shadow,  

Developed and maintained by Chris Peat, Heavens-Above GmbH. Please read the updated FAQ before sending e-mail. Imprint. DLR